Main page
METAR-TAF:

METAR-TAF

Airports :

Kédougou Airport

Kédougou, Senegal

latitude: 12-34N, longitude: 012-13W, elevation: 178 m

Current weather observation

The report was made 2 hours and 19 minutes ago, at 18:00 UTC
Wind 4 kt from the East
Temperature 30°C
Humidity 66%
Pressure 1009 hPa
Visibility 10 km or more
Few clouds at a height of 1500 ft
Broken clouds at a height of 23000 ft

METAR: GOTK 201800Z 08004KT 9999 FEW015 BKN230 30/23 Q1009

Time: 20:19 (20:19 UTC)


TAF: missing

Weather observations and forecasts of more than 4000 airports (METAR and TAF reports).

The available stations are represented by yellow and red dots on the map.

Hover mouse over dot to see the name of the station.

Then click to see weather observations and forecasts.

To change the map : click on the green buttons with a black cross to zoom in, on the green button with a dash to zoom out, or on the green arrows for adjacent maps.


METAR-TAF: